Flag for French Polynesia Weather past 2 weeks in Papeete, Tahiti, French Polynesia

Now
77 °F

Warm.


Feels Like: 79 °F
Forecast: 74 / 86 °F
Wind: 3 mph from Southeast

Location: Tahiti-Faaa


UV Index: 5 (Moderate)

Visibility: N/A


Pressure: 29.83 "Hg

Humidity: 79%

Dew point: 70 °F

Location of PapeeteLocation

Historic Weather in Papeete

°F

Papeete temperature yesterday

Maximum temperature yesterday: 86 °F (at 9:00 AM)
Minimum temperature yesterday: 75 °F (at 12:00 AM)
Average temperature yesterday: 80 °F

Past Weeks' High & Low Weather Summary

 TemperatureHumidityPressure
High90 °F (Apr 3, 12:00 PM)94% (Apr 3, 11:00 PM)29.98 "Hg (Apr 3, 11:00 PM)
Low73 °F (Apr 10, 5:30 AM)55% (Apr 3, 12:00 PM)29.80 "Hg (Apr 1, 2:00 AM)
Average81 °F72%29.89 "Hg
* Reported Apr 1 2:00 AM — Apr 16 2:30 AM, Papeete, Weather by CustomWeather, © 2014

Note: Actual official high and low records may vary slightly from our data, if they occured in-between our weather recording intervals... More about our weather records

Advertising

Historic Weather Conditions — Data for Previous 24 hours

 ConditionsComfort  
Time TempWeatherWind HumidityBarometerVisibility
2:30 AM
Apr 16
77 °FPassing clouds.2 mph79%29.83 "HgN/A
2:00 AM77 °FPassing clouds.No wind79%29.83 "HgN/A
1:30 AM77 °FPassing clouds.3 mph79%29.83 "HgN/A
1:00 AM77 °FPassing clouds.1 mph79%29.83 "HgN/A
12:30 AM77 °FPassing clouds.2 mph79%29.86 "HgN/A
12:00 AM79 °FPassing clouds.2 mph74%29.86 "HgN/A
11:30 PM
Apr 15
79 °FPassing clouds.3 mph74%29.86 "HgN/A
10:30 PM79 °FPassing clouds.3 mph79%29.86 "HgN/A
9:00 PM79 °FPassing clouds.2 mph79%29.86 "HgN/A
8:30 PM79 °FPassing clouds.1 mph79%29.86 "HgN/A
8:00 PM81 °FPassing clouds.3 mph74%29.86 "HgN/A
7:30 PM81 °FPassing clouds.3 mph70%29.86 "HgN/A
7:00 PM82 °FPassing clouds.5 mph66%29.83 "HgN/A
6:30 PM82 °FPassing clouds.2 mph66%29.83 "HgN/A
6:00 PM82 °FPassing clouds.8 mph70%29.83 "HgN/A
5:30 PM84 °FPassing clouds.10 mph66%29.80 "HgN/A
5:00 PM84 °FPassing clouds.10 mph66%29.80 "HgN/A
4:30 PM84 °FPassing clouds.12 mph70%29.80 "HgN/A
4:00 PM86 °FPassing clouds.13 mph66%29.80 "HgN/A
3:30 PM86 °FPassing clouds.13 mph66%29.80 "HgN/A
3:00 PM86 °FPassing clouds.12 mph66%29.80 "HgN/A
1:00 PM86 °FPassing clouds.9 mph66%29.83 "HgN/A
12:30 PM86 °FScattered clouds.12 mph70%29.83 "HgN/A
12:00 PM86 °FScattered clouds.14 mph70%29.83 "HgN/A
11:00 AM86 °FPartly sunny.14 mph66%29.86 "HgN/A
10:30 AM86 °FPartly sunny.13 mph66%29.86 "HgN/A
10:00 AM84 °FScattered clouds.14 mph74%29.89 "HgN/A
9:30 AM84 °FScattered clouds.14 mph74%29.89 "HgN/A
9:00 AM86 °FPassing clouds.14 mph66%29.86 "HgN/A
8:30 AM84 °FPassing clouds.12 mph66%29.86 "HgN/A
8:00 AM82 °FPassing clouds.6 mph66%29.86 "HgN/A
7:30 AM79 °FPassing clouds.3 mph70%29.86 "HgN/A
7:00 AM77 °FPassing clouds.No wind74%29.86 "HgN/A
6:30 AM75 °FPassing clouds.1 mph74%29.83 "HgN/A
6:00 AM75 °FPassing clouds.2 mph74%29.83 "HgN/A
5:30 AM77 °FWarm.5 mph69%29.83 "HgN/A
5:00 AM77 °FWarm.6 mph74%29.80 "HgN/A
4:30 AM77 °FWarm.5 mph69%29.80 "HgN/A
4:00 AM75 °FMild.3 mph74%29.80 "HgN/A
3:30 AM75 °FMild.3 mph74%29.83 "HgN/A
3:00 AM75 °FPassing clouds.3 mph74%29.83 "HgN/A
Weather by CustomWeather, © 2014

See weather overview